Futuna Airport


Codes: NVVF/FTA
Name: Futuna Airport
City: Futuna Island
Country: Vanuatu
Elevation: 95 ft.
Wikipedia:

Photos at Futuna Airport


   Photos courtesy of SpottingLog. You can add your own sightings and photos by signing up for a free trial today.



No photos found.

Weather at Futuna Airport


Time (UTC)DescriptionTempratureWindCloud coverageVisibilityPressureHumidity
17-Jun-2024 06:00Scattered Clouds25°C4 mph, SW31%10000m1012hPa80%
17-Jun-2024 09:00Broken Clouds24°C7 mph, SW54%10000m1013hPa82%
17-Jun-2024 12:00Broken Clouds24°C7 mph, SW77%10000m1013hPa84%
17-Jun-2024 15:00Light Rain24°C7 mph, SW100%10000m1013hPa86%
17-Jun-2024 18:00Light Rain24°C9 mph, SW100%10000m1013hPa85%
17-Jun-2024 21:00Light Rain24°C4 mph, SW100%10000m1014hPa80%
18-Jun-2024 00:00Overcast Clouds24°C4 mph, SW93%10000m1014hPa79%
18-Jun-2024 03:00Overcast Clouds24°C7 mph, SW98%10000m1012hPa79%
18-Jun-2024 06:00Overcast Clouds24°C9 mph, SW97%10000m1012hPa80%
18-Jun-2024 09:00Overcast Clouds24°C9 mph, SW98%10000m1014hPa79%
18-Jun-2024 12:00Light Rain24°C7 mph, SW79%10000m1014hPa78%
18-Jun-2024 15:00Broken Clouds24°C7 mph, SW61%10000m1012hPa75%
18-Jun-2024 18:00Broken Clouds24°C9 mph, SW72%10000m1013hPa71%
18-Jun-2024 21:00Overcast Clouds24°C9 mph, S100%10000m1015hPa71%
19-Jun-2024 00:00Broken Clouds24°C9 mph, S81%10000m1014hPa73%
19-Jun-2024 03:00Clear Sky24°C9 mph, S2%10000m1012hPa73%
19-Jun-2024 06:00Clear Sky24°C11 mph, SE5%10000m1013hPa76%
19-Jun-2024 09:00Scattered Clouds24°C13 mph, SE35%10000m1015hPa78%
19-Jun-2024 12:00Light Rain24°C13 mph, SE68%10000m1014hPa77%
19-Jun-2024 15:00Overcast Clouds23°C16 mph, SE100%10000m1014hPa79%
19-Jun-2024 18:00Overcast Clouds23°C16 mph, SE100%10000m1014hPa75%
19-Jun-2024 21:00Overcast Clouds24°C16 mph, SE100%10000m1016hPa70%
20-Jun-2024 00:00Overcast Clouds24°C16 mph, SE99%10000m1015hPa67%
20-Jun-2024 03:00Few Clouds23°C18 mph, SE13%10000m1014hPa68%
20-Jun-2024 06:00Clear Sky23°C18 mph, SE6%10000m1014hPa68%
20-Jun-2024 09:00Few Clouds23°C18 mph, SE13%10000m1016hPa66%
20-Jun-2024 12:00Few Clouds23°C16 mph, SE12%10000m1016hPa67%
20-Jun-2024 15:00Clear Sky23°C16 mph, SE1%10000m1015hPa66%
20-Jun-2024 18:00Clear Sky23°C16 mph, SE4%10000m1015hPa65%
20-Jun-2024 21:00Clear Sky23°C18 mph, SE1%10000m1017hPa65%
21-Jun-2024 00:00Clear Sky24°C18 mph, SE2%10000m1017hPa65%
21-Jun-2024 03:00Few Clouds24°C18 mph, SE12%10000m1015hPa66%
21-Jun-2024 06:00Scattered Clouds23°C16 mph, SE28%10000m1015hPa69%
21-Jun-2024 09:00Light Rain23°C20 mph, SE100%10000m1017hPa71%
21-Jun-2024 12:00Light Rain23°C16 mph, SE100%10000m1017hPa64%
21-Jun-2024 15:00Overcast Clouds23°C18 mph, SE100%10000m1016hPa70%
21-Jun-2024 18:00Light Rain22°C16 mph, SE100%10000m1016hPa74%
21-Jun-2024 21:00Light Rain23°C16 mph, E80%10000m1018hPa64%
22-Jun-2024 00:00Overcast Clouds24°C13 mph, E90%10000m1017hPa62%
22-Jun-2024 03:00Overcast Clouds23°C13 mph, SE99%10000m1014hPa62%